Spencer, IA

12:21 PM CDT on September 26, 2017 (GMT -0500)
Spencer Municipal

Weather History for KSPW - November, 2013

Change the Weather History Date:

Friday, November 22, 2013

  Actual Average Record
Temperature  
Mean Temperature 16 °F -  
Max Temperature 30 °F 40 °F 67 °F (1974)
Min Temperature 1 °F 21 °F 1 °F (2013)
Degree Days  
Heating Degree Days 50    
Moisture  
Dew Point 7 °F    
Average Humidity 65    
Maximum Humidity 80    
Minimum Humidity 41    
Precipitation  
Precipitation 0.00 in - - ()
Sea Level Pressure  
Sea Level Pressure 30.65 in    
Wind  
Wind Speed 12 mph (WNW)    
Max Wind Speed 20 mph    
Max Gust Speed -    
Visibility 10 miles    
Events      
Averages and records for this station are not official NWS values.
T = Trace of Precipitation, MM = Missing Value Source: NWS Daily Summary

Daily Weather History Graph

Daily Weather History Graph

Search for Another Location

Airport or City:

Trip Planner

Search our weather history database for the weather conditions in past years. The results will help you decide how hot, cold, wet, or windy it might be!

Date:

Astronomy

Nov. 22, 2013 Rise Set
Actual Time 7:22 AM CST 4:50 PM CST
Civil Twilight 6:51 AM CST 5:22 PM CST
Nautical Twilight 6:16 AM CST 5:57 PM CST
Astronomical Twilight 5:42 AM CST 6:31 PM CST
Moon 9:26 PM CST (11/22) 11:04 AM CST (11/22)
Length of Visible Light 10h 30m
Length of Day
9h 28m
Waning Gibbous, 78% of the Moon is Illuminated
Nov 22
Waning Gibbous
Nov 25
Last Quarter
Dec 2
New
Dec 9
First Quarter
Dec 17
Full

Hourly Weather History & Observations

Time (CST) Temp. Windchill Dew Point Humidity Pressure Visibility Wind Dir Wind Speed Gust Speed Precip Events Conditions
12:53 AM 18.0 °F 1.7 °F 9.0 °F 68% 30.61 in 10.0 mi NNW 19.6 mph - 0.00 in   Overcast
1:53 AM 16.0 °F 2.3 °F 8.1 °F 71% 30.63 in 10.0 mi NNW 12.7 mph - N/A   Scattered Clouds
2:53 AM 15.1 °F 2.5 °F 7.0 °F 70% 30.63 in 10.0 mi NNW 10.4 mph - N/A   Clear
3:53 AM 10.0 °F -0.9 °F 5.0 °F 80% 30.64 in 10.0 mi NW 6.9 mph - N/A   Clear
4:53 AM 8.1 °F -4.3 °F 1.9 °F 76% 30.64 in 10.0 mi NW 8.1 mph - N/A   Clear
5:53 AM 3.0 °F -10.5 °F -2.0 °F 80% 30.66 in 10.0 mi WNW 8.1 mph - N/A   Clear
6:53 AM 3.9 °F -8.2 °F -0.9 °F 80% 30.66 in 10.0 mi WNW 6.9 mph - N/A   Clear
7:53 AM 1.9 °F -12.9 °F -2.9 °F 80% 30.66 in 10.0 mi WNW 9.2 mph - N/A   Clear
8:53 AM 12.9 °F -2.2 °F 3.9 °F 67% 30.70 in 10.0 mi NW 13.8 mph - N/A   Clear
9:53 AM 19.0 °F 7.5 °F 5.0 °F 54% 30.69 in 10.0 mi NW 10.4 mph - N/A   Clear
10:53 AM 24.1 °F 14.4 °F 8.1 °F 51% 30.68 in 10.0 mi NW 9.2 mph - N/A   Clear
11:53 AM 26.1 °F 15.6 °F 8.1 °F 47% 30.68 in 10.0 mi West 11.5 mph - N/A   Clear
12:53 PM 28.9 °F 19.2 °F 8.1 °F 41% 30.65 in 10.0 mi West 11.5 mph - N/A   Clear
1:53 PM 30.9 °F 20.7 °F 10.0 °F 42% 30.62 in 10.0 mi WSW 13.8 mph - N/A   Clear
2:53 PM 30.9 °F 20.2 °F 10.0 °F 42% 30.59 in 10.0 mi WSW 15.0 mph - N/A   Clear
3:53 PM 30.0 °F 19.5 °F 10.9 °F 45% 30.60 in 10.0 mi WSW 13.8 mph - N/A   Clear
4:53 PM 25.0 °F 14.8 °F 10.9 °F 55% 30.60 in 10.0 mi WSW 10.4 mph - N/A   Clear
5:53 PM 19.9 °F 7.9 °F 10.0 °F 65% 30.61 in 10.0 mi SW 11.5 mph - N/A   Clear
6:53 PM 14.0 °F 2.9 °F 8.1 °F 77% 30.64 in 10.0 mi NW 8.1 mph - N/A   Clear
7:53 PM 12.9 °F 1.6 °F 7.0 °F 77% 30.64 in 10.0 mi WNW 8.1 mph - N/A   Clear
8:53 PM 14.0 °F 2.9 °F 8.1 °F 77% 30.65 in 10.0 mi North 8.1 mph - N/A   Clear
9:53 PM 19.9 °F 4.8 °F 12.0 °F 71% 30.65 in 10.0 mi North 18.4 mph - N/A   Clear
10:53 PM 19.0 °F 3.2 °F 10.9 °F 71% 30.67 in 10.0 mi North 19.6 mph - N/A   Clear
11:53 PM 14.0 °F -1.4 °F 5.0 °F 67% 30.71 in 10.0 mi NNW 15.0 mph - N/A   Mostly Cloudy